Showing default

AUTCUBE 2, 43681

Orbit data source: Space-Track

AUTCUBE 2, 43681 is a payload satellite in SSO that was launched on Mon, 29 Oct 2018 UTC via an H-IIA 202 launch vehicle from the Tanegashima Space Center (TNSTA). Payload-class satellites include a variety of spacecraft equipped with specific instruments for various scientific and technological missions. These include communications satellites like Starlink; space stations such as the ISS; scientific satellites like the Hubble; Earth observation satellites from companies like Planet Labs, Umbra, and HawkEye 360; GPS; miniature CubeSats for education and research; and military/defense satellites.

Loading next visibility...
Identifier
43681, 2018-084K
Orbit
SSO
Country
Flag of TBDTBD
Related business
Manufacturer
AUT
Mission
Operational Amateur Technology
Bus & Motor
CUBESAT 1U, Unknown motor
Mass
1.6 kg wet, 1.6 kg dry
Launch date (UTC)
2018-10-29 (7 years ago)
Launch vehicle
H-IIA 202
Launch site
Tanegashima Space Center (TNSTA)
Object type
Payload
Rocket body
Debris
Shape & HBR
Box, 0.1 m
Radar Cross Section
0.015 m², Small (<0.1 m²)

Expand to show TLE details & history
Last TLE update: 12 hours ago

TLE from 12 hours ago
0 AUTCUBE 2
1 43681U 18084K   26107.26007553  .00002236  00000-0  14328-3 0  9991
2 43681  98.0764 310.2048 0007832 245.6845 114.3565 15.09663901407736
Epoch: 2026-04-17T06:14Z
TLE epoch observation values (Epoch: 2026-04-17T06:14:30.525Z)
Latitude
-0.00005°
Longitude
11.1818°
Altitude
542.52 km
Speed
7.59 km/s
True Right ascension
20h 40m 49s
True Declination
0° 00' 00"
Sunlit
Object was in daylight at epoch
Visualization orbit readout
Latitude
Unknown
Longitude
Unknown
Altitude
Unknown
Speed
Unknown
Apparent Right ascension
Unknown
Apparent Declination
Unknown
Sunlit
N/A
Visualization observer readout
Local Sidereal Time
00:53:31
Azimuth
Unknown
Elevation
Unknown
Doppler factor
Unknown
Orbital elements
Apogee altitude
539.649 km
Perigee altitude
528.822 km
Semi-major axis
6,912.373 km
Eccentricity
0.00078
Inclination
98.0764°
RAAN
310.2048°
Arg. of periapsis
245.6845°
True anomaly
114.43823°
Mean anomaly
114.3565°
Eccentric anomaly
114.39737°
Mean motion
3.77661 °/min
Orbital period
95.32 mins
BSTAR
0.00014328
Loading maneuver chart data...
Computing Atmospheric mass density...
Loading historical data...
Loading historical data...
Loading historical data...
Loading historical data...
Loading historical data...
Loading historical data...
Loading historical data...

Documentation

Showing up to 5 results
|